Yuma MCAS, AZ

8:11 AM MST on January 18, 2018 (GMT -0700)
Yuma Marine Corps Air Station

Weather History for KNYL - October, 2011

Change the Weather History Date:

Monday, October 31, 2011

  Actual Average Record
Temperature  
Mean Temperature 75 °F 72 °F  
Max Temperature 92 °F 84 °F 98 °F (1988)
Min Temperature 58 °F 60 °F 36 °F (1971)
Degree Days  
Heating Degree Days 0 0  
Month to date heating degree days 0 0  
Since 1 July heating degree days 0 2  
Cooling Degree Days 10 7  
Month to date cooling degree days 451 388  
Year to date cooling degree days 4664 4562  
Growing Degree Days 26 (Base 50)    
Moisture  
Dew Point 31 °F    
Average Humidity 25    
Maximum Humidity 42    
Minimum Humidity 8    
Precipitation  
Precipitation 0.00 in 0.01 in 1.01 in (1987)
Month to date precipitation 0.01 0.21  
Year to date precipitation 1.42 2.83  
Sea Level Pressure  
Sea Level Pressure 29.91 in    
Wind  
Wind Speed 2 mph (NNE)    
Max Wind Speed 8 mph    
Max Gust Speed 9 mph    
Visibility 10 miles    
Events      
T = Trace of Precipitation, MM = Missing Value Source: NWS Daily Summary

Daily Weather History Graph

Daily Weather History Graph

Search for Another Location

Airport or City:

Trip Planner

Search our weather history database for the weather conditions in past years. The results will help you decide how hot, cold, wet, or windy it might be!

Date:

Astronomy

Oct. 31, 2011 Rise Set
Actual Time 6:54 AM MST 5:48 PM MST
Civil Twilight 6:29 AM MST 6:14 PM MST
Nautical Twilight 6:00 AM MST 6:43 PM MST
Astronomical Twilight 5:31 AM MST 7:11 PM MST
Moon 11:58 AM MST (10/31) 10:34 PM MST (10/31)
Length of Visible Light 11h 44m
Length of Day
10h 53m
Waxing Crescent, 31% of the Moon is Illuminated
Oct 31
Waxing Crescent
Nov 2
First Quarter
Nov 10
Full
Nov 18
Last Quarter
Nov 24
New

Hourly Weather History & Observations

Time (MST) Temp. Dew Point Humidity Pressure Visibility Wind Dir Wind Speed Gust Speed Precip Events Conditions
12:55 AM 66.0 °F 37.0 °F 34% 29.96 in 10.0 mi Calm Calm - N/A   Clear
1:55 AM 66.9 °F 37.0 °F 33% 29.95 in 10.0 mi Calm Calm - N/A   Clear
2:55 AM 64.0 °F 32.0 °F 30% 29.95 in 10.0 mi ENE 4.6 mph - N/A   Clear
3:31 AM - - N/A% - - North - - N/A   Unknown
3:55 AM 63.0 °F 36.0 °F 37% 29.93 in 10.0 mi NNE 4.6 mph - N/A   Clear
4:00 AM - - N/A% - - North - - N/A   Unknown
4:55 AM 60.1 °F 35.1 °F 39% 29.93 in 10.0 mi Calm Calm - N/A   Clear
5:55 AM 60.1 °F 37.0 °F 42% 29.94 in 10.0 mi NNE 3.5 mph - N/A   Clear
6:55 AM 60.1 °F 36.0 °F 41% 29.94 in 10.0 mi Calm Calm - N/A   Clear
7:55 AM 64.0 °F 32.0 °F 30% 29.95 in 10.0 mi North 3.5 mph - N/A   Clear
8:55 AM 71.1 °F 26.1 °F 19% 29.97 in 10.0 mi NNE 4.6 mph - N/A   Partly Cloudy
9:55 AM 75.9 °F 25.0 °F 15% 29.97 in 10.0 mi NE 4.6 mph - N/A   Partly Cloudy
10:55 AM 81.0 °F 25.0 °F 13% 29.97 in 10.0 mi NE 4.6 mph - N/A   Partly Cloudy
11:55 AM 86.0 °F 25.0 °F 11% 29.94 in 10.0 mi Calm Calm - N/A   Partly Cloudy
12:55 PM 89.1 °F 23.0 °F 9% 29.91 in 10.0 mi Calm Calm - N/A   Partly Cloudy
1:55 PM 90.0 °F 23.0 °F 9% 29.88 in 10.0 mi Variable 4.6 mph - N/A   Partly Cloudy
2:55 PM 91.0 °F 21.9 °F 8% 29.86 in 10.0 mi Calm Calm - N/A   Partly Cloudy
3:55 PM 91.0 °F 24.1 °F 9% 29.85 in 10.0 mi West 4.6 mph - N/A   Partly Cloudy
4:55 PM 90.0 °F 23.0 °F 9% 29.85 in 10.0 mi West 3.5 mph - N/A   Clear
5:55 PM 84.9 °F 27.0 °F 12% 29.84 in 10.0 mi Calm Calm - N/A   Clear
6:55 PM 79.0 °F 35.1 °F 20% 29.85 in 10.0 mi Calm Calm - N/A   Clear
7:55 PM 75.9 °F 36.0 °F 23% 29.85 in 10.0 mi Calm Calm - N/A   Clear
8:55 PM 73.0 °F 36.0 °F 26% 29.85 in 10.0 mi Calm Calm - N/A   Clear
9:55 PM 71.1 °F 36.0 °F 28% 29.86 in 10.0 mi Calm Calm - N/A   Clear
10:55 PM 68.0 °F 36.0 °F 31% 29.86 in 10.0 mi Calm Calm - N/A   Clear
11:55 PM 64.9 °F 37.0 °F 36% 29.86 in 10.0 mi SSE 4.6 mph - N/A   Clear